Date String (YYYY-MM-DD hh:mm:ss) UTC,Instrument flags,Ambient pressure (hPa),Sample flow (lpm),Bypass flow (lpm),Sample temperature (°C),Ambient temperature (°C),ASC tube jacket temperature (°C),LED temperature (°C),Box temperature (°C),Sample RH (%),Span deviation,Mass concentration (μg/m³),Mass concentration (μg/m³),Mass concentration (μg/m³)
DateTimeUTC,F1_M11,P_M11,Q1_M11,Q2_M11,T1_M11,T2_M11,T3_M11,T4_M11,T5_M11,U1_M11,ZSPAN_M11,X2_M11,X0_M11,X1_M11
2023-04-25 17:00:00,,0824.0,5.01,0.00,26.7,25.3,00.0,35.0,28.3,21.4,-000.8,0008.01,0013.57,0006.98
2023-04-25 17:01:00,,0824.0,5.00,0.00,26.7,25.3,00.0,35.0,28.3,21.2,-000.7,0008.07,0014.24,0006.99
2023-04-25 17:02:00,,0824.0,4.99,0.00,26.7,25.3,00.0,35.0,28.3,21.5,-000.8,0008.05,0013.93,0006.99
2023-04-25 17:03:00,,0823.9,5.00,0.00,26.7,25.3,00.0,35.0,28.4,21.7,-000.8,0008.03,0013.32,0007.00
2023-04-25 17:04:00,,0824.0,5.00,0.00,26.7,25.4,00.0,35.0,28.4,21.8,-000.7,0008.04,0013.30,0007.03
2023-04-25 17:05:00,,0823.9,5.00,0.00,26.7,25.4,00.0,35.1,28.4,22.0,-000.4,0008.07,0013.22,0007.06
2023-04-25 17:06:00,,0824.0,5.00,0.00,26.8,25.4,00.0,35.1,28.4,21.7,-000.6,0008.11,0013.16,0007.12
2023-04-25 17:07:00,,0824.0,5.01,0.00,26.8,25.4,00.0,35.1,28.4,21.6,-000.6,0008.18,0012.87,0007.20
2023-04-25 17:08:00,,0824.0,5.01,0.00,26.7,25.4,00.0,35.1,28.4,21.7,-000.4,0008.25,0012.93,0007.26
2023-04-25 17:09:00,,0824.0,4.98,0.00,26.7,25.4,00.0,35.1,28.3,21.7,0000.3,0008.31,0013.08,0007.29
2023-04-25 17:10:00,,0824.0,5.01,0.00,26.8,25.4,00.0,35.1,28.3,21.5,0000.8,0008.25,0012.90,0007.27
2023-04-25 17:11:00,,0824.1,5.01,0.00,26.8,25.4,00.0,35.1,28.3,21.4,0000.8,0008.22,0012.85,0007.26
2023-04-25 17:12:00,,0824.2,5.00,0.00,26.8,25.4,00.0,35.1,28.4,20.6,0000.9,0008.19,0012.46,0007.25
2023-04-25 17:13:00,,0824.1,4.99,0.00,26.8,25.4,00.0,35.1,28.4,20.3,0001.0,0008.17,0012.67,0007.22
2023-04-25 17:14:00,,0824.1,5.00,0.00,26.8,25.4,00.0,35.1,28.4,20.2,0001.3,0008.16,0012.75,0007.18
2023-04-25 17:15:00,,0824.1,5.01,0.00,26.8,25.4,00.0,35.1,28.4,20.1,0001.2,0008.12,0012.85,0007.14
2023-04-25 17:16:00,,0824.1,5.01,0.00,26.8,25.4,00.0,35.1,28.4,20.3,0001.0,0008.07,0012.82,0007.09
2023-04-25 17:17:00,,0824.1,4.98,0.00,26.8,25.4,00.0,35.1,28.4,20.9,0001.3,0008.03,0013.05,0007.07
2023-04-25 17:18:00,,0824.2,4.99,0.00,26.8,25.4,00.0,35.1,28.4,21.3,0001.5,0007.99,0012.98,0007.04
2023-04-25 17:19:00,,0824.2,5.00,0.00,26.8,25.4,00.0,35.1,28.4,21.3,0001.6,0007.96,0013.51,0007.02
2023-04-25 17:20:00,,0824.3,5.00,0.00,26.8,25.4,00.0,35.1,28.4,21.0,0001.7,0008.01,0013.87,0007.00
2023-04-25 17:21:00,,0824.3,5.01,0.00,26.8,25.4,00.0,35.1,28.4,20.6,0001.4,0008.06,0014.00,0007.00
2023-04-25 17:22:00,,0824.3,5.00,0.00,26.8,25.5,00.0,35.2,28.4,20.6,0001.6,0008.09,0014.09,0007.00
2023-04-25 17:23:00,,0824.3,5.00,0.00,26.8,25.5,00.0,35.2,28.4,20.4,0001.4,0008.15,0014.35,0007.01
2023-04-25 17:24:00,,0824.3,4.99,0.00,26.9,25.5,00.0,35.2,28.4,19.9,0001.5,0008.14,0013.88,0007.01
2023-04-25 17:25:00,,0824.3,5.01,0.00,26.9,25.5,00.0,35.2,28.4,19.8,0001.0,0008.07,0013.60,0006.98
2023-04-25 17:26:00,,0824.3,5.00,0.00,26.9,25.5,00.0,35.2,28.5,20.1,0001.1,0008.04,0014.19,0007.00
2023-04-25 17:27:00,,0824.3,5.00,0.00,26.9,25.5,00.0,35.2,28.4,20.0,0001.7,0008.06,0014.92,0007.05
2023-04-25 17:28:00,,0824.3,4.99,0.00,26.9,25.5,00.0,35.2,28.4,20.6,0001.9,0008.12,0014.88,0007.10
2023-04-25 17:29:00,,0824.3,5.00,0.00,26.9,25.5,00.0,35.2,28.4,20.1,0002.0,0008.09,0014.67,0007.10
2023-04-25 17:30:00,,0824.3,5.01,0.00,26.9,25.5,00.0,35.2,28.5,19.9,0002.2,0008.08,0014.78,0007.07
2023-04-25 17:31:00,,0824.3,5.00,0.00,26.9,25.5,00.0,35.2,28.4,21.1,0002.1,0008.05,0014.40,0007.10
2023-04-25 17:32:00,,0824.3,4.99,0.00,26.9,25.5,00.0,35.2,28.4,22.2,0002.1,0008.05,0014.69,0007.16
2023-04-25 17:33:00,,0824.3,4.99,0.00,26.9,25.5,00.0,35.2,28.5,21.9,0002.1,0008.15,0014.82,0007.26
2023-04-25 17:34:00,,0824.4,5.00,0.00,26.9,25.4,00.0,35.2,28.5,21.5,0002.4,0008.23,0014.79,0007.37
2023-04-25 17:35:00,,0824.4,5.00,0.00,26.9,25.4,00.0,35.2,28.5,21.4,0002.6,0008.34,0015.47,0007.48
2023-04-25 17:36:00,,0824.4,5.00,0.00,26.9,25.4,00.0,35.2,28.5,20.7,0002.8,0008.45,0015.80,0007.57
2023-04-25 17:37:00,,0824.3,5.00,0.00,26.9,25.4,00.0,35.3,28.5,20.6,0002.5,0008.52,0015.40,0007.63
2023-04-25 17:38:00,,0824.4,5.00,0.00,26.9,25.4,00.0,35.3,28.5,20.4,0002.1,0008.59,0014.59,0007.64
2023-04-25 17:39:00,,0824.3,5.00,0.00,26.9,25.4,00.0,35.3,28.5,20.9,0001.7,0008.64,0014.85,0007.66
2023-04-25 17:40:00,,0824.4,5.00,0.00,26.9,25.4,00.0,35.3,28.5,21.0,0001.3,0008.73,0015.17,0007.75
2023-04-25 17:41:00,,0824.3,5.00,0.00,26.9,25.4,00.0,35.3,28.5,21.2,0000.9,0008.82,0014.95,0007.84
2023-04-25 17:42:00,,0824.2,5.01,0.00,26.9,25.3,00.0,35.3,28.5,21.4,0000.5,0008.88,0014.77,0007.88
2023-04-25 17:43:00,,0824.3,5.00,0.00,26.9,25.3,00.0,35.3,28.5,21.4,0000.3,0008.91,0014.47,0007.93
2023-04-25 17:44:00,,0824.3,5.00,0.00,26.9,25.3,00.0,35.3,28.5,21.5,-000.2,0008.92,0014.54,0007.94
2023-04-25 17:45:00,,0824.3,5.00,0.00,26.9,25.3,00.0,35.2,28.5,21.3,-000.6,0008.92,0014.56,0007.94
2023-04-25 17:46:00,,0824.3,4.99,0.00,26.9,25.4,00.0,35.2,28.4,21.4,-000.8,0008.93,0014.09,0007.94
2023-04-25 17:47:00,,0824.3,5.00,0.00,26.9,25.4,00.0,35.3,28.5,21.4,-000.8,0008.99,0014.80,0007.99
2023-04-25 17:48:00,,0824.4,5.00,0.00,26.9,25.3,00.0,35.3,28.5,21.1,-000.6,0009.07,0014.85,0008.05
2023-04-25 17:49:00,,0824.3,4.99,0.00,26.9,25.4,00.0,35.3,28.4,21.0,-000.6,0009.06,0014.97,0008.09
2023-04-25 17:50:00,,0824.4,5.00,0.00,26.9,25.4,00.0,35.3,28.5,20.7,-000.5,0009.05,0015.12,0008.12
2023-04-25 17:51:00,,0824.3,4.99,0.00,26.9,25.4,00.0,35.3,28.5,20.8,-000.7,0009.04,0014.86,0008.08
2023-04-25 17:52:00,,0824.3,5.00,0.00,26.9,25.4,00.0,35.3,28.5,20.7,-000.4,0009.03,0014.79,0008.05
2023-04-25 17:53:00,,0824.4,5.00,0.00,26.9,25.4,00.0,35.3,28.5,20.6,-000.5,0009.01,0014.69,0008.04
2023-04-25 17:54:00,,0824.4,5.00,0.00,26.9,25.4,00.0,35.3,28.5,20.4,-000.6,0008.95,0014.67,0007.99
2023-04-25 17:55:00,,0824.4,5.01,0.00,26.9,25.4,00.0,35.3,28.4,20.6,-000.8,0008.91,0014.63,0007.93
2023-04-25 17:56:00,,0824.4,4.99,0.00,26.9,25.5,00.0,35.3,28.4,20.1,-000.7,0008.83,0014.47,0007.87
2023-04-25 17:57:00,,0824.4,5.00,0.00,26.9,25.5,00.0,35.3,28.5,20.3,-000.8,0008.70,0014.21,0007.82
2023-04-25 17:58:00,,0824.4,5.00,0.00,26.9,25.5,00.0,35.3,28.5,20.3,-000.7,0008.61,0013.37,0007.76
2023-04-25 17:59:00,,0824.4,5.00,0.00,26.9,25.5,00.0,35.3,28.5,20.6,-000.9,0008.59,0013.40,0007.72
